Sauk Centre, MN

11:36 PM CST on December 10, 2019 (GMT -0600)
Sauk Centre

Weather History for KD39 - September, 2019

Change the Weather History Date:

Thursday, September 12, 2019

  Actual Average (KGHW) Record (KGHW)
Temperature  
Mean Temperature 55 °F -  
Max Temperature 62 °F 73 °F 89 °F (1969)
Min Temperature 49 °F 49 °F 34 °F (1975)
Degree Days  
Heating Degree Days 10    
Growing Degree Days 5 (Base 50)    
Moisture  
Dew Point 55 °F    
Average Humidity 97    
Maximum Humidity 99    
Minimum Humidity 94    
Precipitation  
Precipitation 1.20 in - - ()
Sea Level Pressure  
Sea Level Pressure 29.90 in    
Wind  
Wind Speed 13 mph ()    
Max Wind Speed 29 mph    
Max Gust Speed 37 mph    
Visibility 6.6 miles    
Events Rain , Thunderstorm    
Averages and records for this station are not official NWS values.
T = Trace of Precipitation, MM = Missing Value Source: Averaged Metar Reports

Daily Weather History Graph

Daily Weather History Graph

Search for Another Location

Airport or City:

Astronomy

Sep. 12, 2019 Rise Set
Actual Time 6:54 AM CDT 7:37 PM CDT
Civil Twilight 6:24 AM CDT 8:07 PM CDT
Nautical Twilight 5:48 AM CDT 8:42 PM CDT
Astronomical Twilight 5:11 AM CDT 9:19 PM CDT
Moon 7:28 PM CDT (9/12) 5:06 AM CDT (9/12)
Length of Visible Light 13h 42m
Length of Day
12h 42m
Waxing Gibbous, 98% of the Moon is Illuminated
Sep 12
Waxing Gibbous
Sep 13
Full
Sep 21
Last Quarter
Sep 28
New
Oct 5
First Quarter

Hourly Weather History & Observations

Time (CDT) Temp. Dew Point Humidity Pressure Visibility Wind Dir Wind Speed Gust Speed Precip Events Conditions
12:15 AM 49.5 °F 48.7 °F 97% 30.10 in 3.0 mi ENE 15.0 mph 23.0 mph N/A   Overcast
12:38 AM 49.3 °F 48.6 °F 97% 30.09 in 3.0 mi ENE 15.0 mph 25.3 mph N/A   Overcast
12:58 AM 49.1 °F 48.4 °F 97% 30.07 in 4.0 mi ENE 17.3 mph 24.2 mph N/A   Overcast
1:16 AM 49.1 °F 48.4 °F 97% 30.08 in 7.0 mi ENE 15.0 mph 21.9 mph N/A   Overcast
1:35 AM 49.5 °F 48.6 °F 97% 30.09 in 7.0 mi East 13.8 mph 21.9 mph N/A   Overcast
1:58 AM 49.6 °F 48.7 °F 97% 30.12 in 10.0 mi East 9.2 mph 18.4 mph N/A Rain Light Rain
2:17 AM 49.8 °F 48.7 °F 96% 30.10 in 10.0 mi ENE 10.4 mph - N/A Rain Light Rain
2:36 AM 50.0 °F 48.7 °F 95% 30.09 in 10.0 mi ENE 10.4 mph 17.3 mph 0.02 in Rain Light Rain
2:55 AM 50.0 °F 49.1 °F 97% 30.11 in 10.0 mi East 10.4 mph - 0.02 in Rain Rain
2:56 AM 50.0 °F 49.1 °F 97% 30.11 in 10.0 mi East 9.2 mph - 0.02 in Rain Rain
3:15 AM 50.0 °F 49.1 °F 97% 30.09 in 10.0 mi ENE 12.7 mph - 0.02 in Rain Light Rain
3:19 AM 50.0 °F 49.1 °F 97% 30.08 in 10.0 mi ENE 11.5 mph - 0.02 in Rain Light Rain
3:38 AM 50.0 °F 49.1 °F 97% 30.10 in 10.0 mi East 12.7 mph 17.3 mph 0.04 in Rain , Thunderstorm Light Thunderstorms and Rain
3:57 AM 50.0 °F 49.1 °F 97% 30.07 in 7.0 mi ENE 11.5 mph 18.4 mph 0.10 in Rain Rain
4:15 AM 50.0 °F 49.1 °F 97% 30.02 in 7.0 mi ENE 15.0 mph 20.7 mph 0.07 in Rain Heavy Rain
4:16 AM 50.0 °F 49.1 °F 97% 30.02 in 7.0 mi ENE 16.1 mph 21.9 mph 0.08 in Rain Heavy Rain
4:35 AM 50.0 °F 49.1 °F 97% 30.00 in 7.0 mi ENE 20.7 mph 26.5 mph 0.14 in Rain Rain
4:36 AM 50.0 °F 49.1 °F 97% 29.99 in 7.0 mi ENE 20.7 mph 26.5 mph 0.14 in Rain Rain
4:58 AM 50.2 °F 49.3 °F 97% 30.04 in 10.0 mi East 13.8 mph 25.3 mph 0.21 in Rain Rain
5:15 AM 50.2 °F 49.3 °F 97% 30.05 in 7.0 mi East 13.8 mph 20.7 mph 0.07 in Rain Rain
5:35 AM 50.2 °F 49.3 °F 97% 30.03 in 7.0 mi ENE 15.0 mph 23.0 mph 0.19 in Rain Rain
5:36 AM 50.2 °F 49.3 °F 97% 30.03 in 7.0 mi ENE 15.0 mph 23.0 mph 0.19 in Rain Rain
5:55 AM 50.4 °F 49.6 °F 97% 30.01 in 5.0 mi ENE 16.1 mph 24.2 mph 0.28 in   Overcast
5:59 AM 50.4 °F 49.6 °F 97% 30.00 in 5.0 mi ENE 19.6 mph 25.3 mph 0.29 in Rain Rain
6:18 AM 50.4 °F 49.6 °F 97% 29.97 in 4.0 mi ENE 19.6 mph 27.6 mph 0.10 in Rain Rain
6:37 AM 50.4 °F 49.6 °F 97% 29.90 in 4.0 mi ENE 28.8 mph 36.8 mph 0.19 in Rain Rain
6:56 AM 50.4 °F 49.6 °F 97% 29.92 in 7.0 mi ENE 23.0 mph 33.4 mph 0.24 in Rain Light Rain
7:15 AM 50.7 °F 49.6 °F 96% 29.93 in 10.0 mi ENE 18.4 mph 27.6 mph 0.01 in Rain Light Rain
7:16 AM 50.7 °F 49.8 °F 97% 29.93 in 10.0 mi ENE 23.0 mph 31.1 mph 0.01 in Rain Light Rain
7:35 AM 50.9 °F 49.8 °F 96% 29.94 in 10.0 mi ENE 18.4 mph 31.1 mph 0.02 in Rain Light Rain
7:58 AM 50.9 °F 50.2 °F 97% 29.92 in 7.0 mi ENE 17.3 mph 28.8 mph 0.07 in Rain Light Rain
8:17 AM 51.4 °F 50.9 °F 98% 29.90 in 7.0 mi ENE 19.6 mph 31.1 mph N/A   Overcast
8:35 AM 51.8 °F 51.1 °F 97% 29.89 in 5.0 mi ENE 18.4 mph 25.3 mph 0.01 in Rain Rain
8:36 AM 51.8 °F 51.1 °F 97% 29.89 in 5.0 mi ENE 18.4 mph 25.3 mph 0.01 in Rain Rain
8:55 AM 52.0 °F 51.3 °F 97% 29.89 in 2.5 mi East 16.1 mph 26.5 mph 0.04 in Rain Rain
9:18 AM 52.3 °F 51.8 °F 98% 29.89 in 4.0 mi East 19.6 mph 25.3 mph 0.01 in Rain Light Rain
9:36 AM 52.7 °F 52.0 °F 97% 29.89 in 1.8 mi East 13.8 mph 23.0 mph 0.02 in Rain Light Rain
9:56 AM 53.4 °F 52.9 °F 98% 29.88 in 1.8 mi East 16.1 mph 24.2 mph 0.03 in Rain Light Rain
10:15 AM 54.0 °F 53.6 °F 99% 29.89 in 1.8 mi East 13.8 mph 20.7 mph N/A Rain Light Rain
10:16 AM 54.0 °F 53.6 °F 99% 29.89 in 1.8 mi East 13.8 mph 20.7 mph N/A Rain Light Rain
10:35 AM 54.5 °F 54.1 °F 99% 29.89 in 1.8 mi East 12.7 mph - N/A Rain Light Rain
10:58 AM 55.4 °F 54.9 °F 98% 29.90 in 2.0 mi East 13.8 mph 19.6 mph 0.03 in Rain Rain
11:16 AM 55.9 °F 55.6 °F 99% 29.89 in 2.5 mi East 12.7 mph 19.6 mph 0.01 in Rain Light Rain
11:36 AM 56.7 °F 56.3 °F 99% 29.89 in 2.5 mi ESE 17.3 mph 21.9 mph 0.02 in Rain Light Rain
11:55 AM 57.2 °F 56.8 °F 99% 29.88 in 2.5 mi East 16.1 mph 21.9 mph 0.02 in Rain Light Rain
11:56 AM 57.4 °F 56.8 °F 98% 29.88 in 2.5 mi East 16.1 mph 21.9 mph 0.02 in Rain Light Rain
12:15 PM 57.7 °F 57.4 °F 99% 29.87 in 2.5 mi East 13.8 mph 21.9 mph 0.01 in Rain Light Rain
12:19 PM 58.1 °F 57.4 °F 97% 29.87 in 2.5 mi East 15.0 mph 20.7 mph 0.01 in Rain Light Rain
12:37 PM 58.1 °F 57.4 °F 97% 29.87 in 2.5 mi ESE 13.8 mph 20.7 mph 0.01 in Rain Light Rain
12:56 PM 58.5 °F 57.9 °F 98% 29.86 in 4.0 mi East 12.7 mph 21.9 mph 0.01 in Rain Light Rain
1:15 PM 59.0 °F 58.3 °F 97% 29.85 in 3.0 mi East 18.4 mph 26.5 mph N/A   Overcast
1:16 PM 59.0 °F 58.3 °F 97% 29.85 in 4.0 mi East 20.7 mph 26.5 mph N/A   Overcast
1:35 PM 59.0 °F 58.3 °F 97% 29.85 in 4.0 mi East 16.1 mph 26.5 mph N/A   Overcast
1:58 PM 59.2 °F 58.5 °F 97% 29.85 in 7.0 mi East 18.4 mph 24.2 mph N/A   Overcast
2:17 PM 59.4 °F 58.5 °F 97% 29.84 in 7.0 mi East 17.3 mph 21.9 mph N/A   Overcast
2:37 PM 59.5 °F 58.6 °F 97% 29.83 in 10.0 mi East 15.0 mph 21.9 mph N/A   Overcast
2:55 PM 59.9 °F 58.5 °F 95% 29.82 in 10.0 mi East 16.1 mph 25.3 mph N/A   Overcast
2:56 PM 59.9 °F 58.6 °F 96% 29.82 in 10.0 mi East 16.1 mph 25.3 mph N/A   Overcast
3:15 PM 59.9 °F 58.6 °F 96% 29.81 in 10.0 mi East 13.8 mph 20.7 mph N/A   Overcast
3:16 PM 59.9 °F 58.5 °F 95% 29.81 in 10.0 mi East 16.1 mph 20.7 mph N/A   Overcast
3:35 PM 59.9 °F 58.6 °F 96% 29.81 in 4.0 mi ESE 11.5 mph 16.1 mph N/A Rain , Thunderstorm Light Thunderstorms and Rain
3:39 PM 59.7 °F 58.6 °F 96% 29.82 in 5.0 mi ESE 11.5 mph 16.1 mph N/A Rain , Thunderstorm Light Thunderstorms and Rain
3:58 PM 59.9 °F 59.0 °F 97% 29.83 in 3.0 mi SSE 4.6 mph - 0.05 in Rain , Thunderstorm Thunderstorms and Rain
4:15 PM 60.3 °F 59.9 °F 99% 29.82 in 4.0 mi East 8.1 mph - 0.07 in Rain , Thunderstorm Light Thunderstorms and Rain
4:36 PM 60.3 °F 59.5 °F 97% 29.80 in 3.0 mi East 11.5 mph - 0.07 in Thunderstorm Overcast
4:55 PM 61.0 °F 60.3 °F 97% 29.76 in 4.0 mi East 16.1 mph 19.6 mph 0.08 in Rain Light Rain
4:56 PM 61.0 °F 60.3 °F 97% 29.76 in 4.0 mi ENE 16.1 mph 19.6 mph 0.08 in Rain Light Rain
5:15 PM 60.8 °F 59.9 °F 97% 29.76 in 10.0 mi East 13.8 mph 17.3 mph N/A   Overcast
5:20 PM 60.8 °F 59.7 °F 96% 29.77 in 10.0 mi East 12.7 mph 17.3 mph N/A   Overcast
5:37 PM 60.6 °F 59.5 °F 96% 29.78 in 10.0 mi East 9.2 mph - N/A   Overcast
5:55 PM 60.8 °F 59.9 °F 97% 29.79 in 10.0 mi SE 5.8 mph - N/A   Overcast
6:35 PM 61.2 °F 60.8 °F 99% 29.79 in 2.0 mi ESE 5.8 mph - 0.01 in   Drizzle
6:36 PM 61.2 °F 60.8 °F 99% 29.79 in 2.0 mi ESE 5.8 mph - 0.01 in   Drizzle
6:59 PM 61.7 °F 61.2 °F 98% 29.79 in 2.5 mi SE 6.9 mph - 0.01 in   Light Drizzle
7:16 PM 61.9 °F 61.7 °F 99% 29.79 in 3.0 mi South 10.4 mph - N/A Rain Light Rain
7:35 PM 60.1 °F 59.5 °F 98% 29.79 in 7.0 mi WSW 12.7 mph 19.6 mph N/A   Overcast
7:36 PM 59.9 °F 59.4 °F 98% 29.79 in 7.0 mi WSW 11.5 mph 19.6 mph N/A   Overcast
7:55 PM 59.9 °F 59.2 °F 97% 29.80 in 10.0 mi WSW 8.1 mph - N/A   Overcast
7:56 PM 59.9 °F 59.2 °F 97% 29.79 in 10.0 mi WSW 9.2 mph - N/A   Overcast
8:15 PM 59.9 °F 59.0 °F 97% 29.80 in 10.0 mi WSW 9.2 mph - N/A   Overcast
8:16 PM 59.9 °F 59.0 °F 97% 29.80 in 10.0 mi WSW 9.2 mph - N/A   Overcast
8:35 PM 59.5 °F 58.5 °F 96% 29.80 in 10.0 mi WSW 6.9 mph - N/A   Overcast
8:36 PM 59.5 °F 58.5 °F 96% 29.80 in 10.0 mi WSW 6.9 mph - N/A   Overcast
8:58 PM 59.4 °F 58.5 °F 97% 29.80 in 10.0 mi SW 4.6 mph - N/A   Overcast
9:18 PM 59.2 °F 58.3 °F 97% 29.81 in 10.0 mi SW 5.8 mph - N/A   Overcast
9:36 PM 58.5 °F 57.2 °F 96% 29.81 in 10.0 mi WSW 5.8 mph - N/A   Overcast
9:55 PM 58.5 °F 57.6 °F 97% 29.81 in 10.0 mi West 3.5 mph - N/A   Overcast
10:15 PM 58.3 °F 57.4 °F 97% 29.82 in 10.0 mi WSW 5.8 mph - N/A   Overcast
10:19 PM 58.1 °F 57.2 °F 97% 29.82 in 10.0 mi WSW 3.5 mph - N/A   Overcast
10:38 PM 58.1 °F 56.8 °F 96% 29.82 in 10.0 mi West 4.6 mph - N/A   Overcast
10:55 PM 57.6 °F 56.3 °F 96% 29.82 in 7.0 mi West 10.4 mph 16.1 mph N/A   Overcast
11:15 PM 57.0 °F 55.4 °F 94% 29.81 in 10.0 mi West 8.1 mph - N/A   Overcast
11:16 PM 57.0 °F 55.4 °F 94% 29.81 in 10.0 mi West 8.1 mph - N/A   Overcast
11:35 PM 56.7 °F 55.4 °F 96% 29.81 in 10.0 mi West 6.9 mph - N/A   Overcast
11:58 PM 55.9 °F 54.7 °F 96% 29.81 in 10.0 mi West 4.6 mph - N/A   Light Drizzle